Location: Gu�tanj
(46.5431°N, 14.9692°E)
Time: 20:52:01
(UTC+00:00)

Cosmos 1844 - Pass Details

Date: 03 March 2021
Orbit: 822 x 868 km, 70.9° (Epoch: 20 April)

Event Time Altitude Azimuth Distance (km) Brightness Sun altitude
Rises 18:34:03 0° 332° (NNW) 3,459 7.5 -18.8°
Reaches altitude 10° 18:36:31 10° 331° (NNW) 2,514 6.7 -19.2°
Maximum altitude 18:42:19 79° 246° (WSW) 879 3.8 -20.2°
Enters shadow 18:46:37 18° 162° (SSE) 1,960 5.3 -20.9°
